RH
69 64 63 65 67 64 69 72 72 73 74 82 78 86 81 83 86 88 86 63 53 56 65 62 52 42 34 35 34 37 44 37 28 29 30 26 28 27 31 36 58 65 78 66 70
73 65 67 68 66 67 67 69 69 69 72 73 75 81 84 87 92 89 66 64 58 63 55 55 53 41 37 32 38 40 49 33 25 23 28 28 26 27 37 58 83 85 71 65 71
72 72 67 66 68 68 66 67 68 69 70 75 74 80 88 88 86 80 61 66 60 70 48 47 44 35 36 39 38 40 37 26 21 31 27 30 30 30 42 58 80 87 74 70 76
72 70 62 66 66 66 68 68 68 68 71 76 78 83 88 91 80 59 62 66 65 67 48 48 43 38 38 39 36 35 29 26 22 26 30 31 29 30 33 34 63 70 67 70 78
63 63 69 71 67 67 68 68 69 69 68 72 76 85 85 95 84 56 63 68 66 66 49 52 44 38 34 30 36 34 32 23 23 26 32 28 33 28 31 48 72 68 67 71 76
70 69 66 63 67 68 68 69 68 68 67 70 72 80 79 93 53 49 53 69 70 63 52 49 43 34 31 30 34 33 30 31 34 25 30 31 30 25 29 71 78 73 76 74 78
63 65 66 65 68 68 68 68 69 69 70 67 69 76 82 77 51 56 60 78 72 57 55 51 40 32 32 32 28 32 33 34 33 29 30 28 33 30 32 75 81 79 79 77 78
65 63 65 65 66 67 69 70 70 70 69 68 67 83 84 52 53 60 54 62 66 60 53 53 34 36 36 33 31 29 35 40 35 30 34 34 42 33 39 80 88 90 87 83 83
68 69 68 67 68 69 70 70 69 69 69 68 79 85 67 55 72 63 56 62 67 66 60 32 38 42 40 42 43 40 44 44 40 34 34 34 36 30 30 71 87 92 91 86 85
71 69 68 70 70 71 72 73 70 67 65 66 72 76 67 70 64 56 52 57 64 66 53 48 50 52 57 51 45 45 38 42 38 39 39 40 37 43 34 36 61 77 92 91 88
73 74 72 71 71 71 82 81 74 63 68 84 75 60 66 66 60 60 56 56 54 58 70 58 60 56 42 44 35 35 29 39 42 39 37 40 37 40 37 35 34 39 72 91 88
71 69 70 71 72 72 86 81 81 79 94 72 68 65 60 80 85 59 54 68 64 68 59 62 62 46 44 44 39 34 31 35 44 43 36 45 42 47 41 40 36 33 53 72 69
64 67 68 69 71 82 84 82 87 84 96 77 70 64 56 75 81 69 63 60 63 68 58 65 57 43 43 52 44 52 33 35 42 46 44 46 48 41 42 46 40 34 43 64 66
68 67 68 69 78 91 91 85 87 90 99 82 92 78 87 76 89 57 63 50 61 67 58 59 48 42 44 44 40 51 39 37 49 54 64 41 54 50 47 44 46 41 43 61 71
71 70 71 71 90 96 80 84 89 97 97 91 86 81 73 79 90 67 58 54 60 59 60 64 55 47 46 38 36 45 42 48 51 55 62 67 69 46 48 46 50 52 50 57 68
73 71 74 82 89 80 81 85 94 87 95 93 88 91 75 92 89 66 64 60 50 54 51 53 48 44 42 39 33 40 53 62 73 72 79 55 52 51 58 38 44 44 59 59 66
74 73 75 72 81 70 74 86 89 94 65 82 79 78 86 94 99 85 82 82 71 75 71 57 60 52 40 46 44 50 49 91 88 90 78 65 61 37 41 37 33 39 48 60 74
74 73 76 72 76 74 87 90 89 78 94 69 68 72 90 98 98 95 79 95 74 64 75 71 80 54 47 44 44 48 44 84 83 93 79 62 67 46 45 57 55 39 47 76 91
74 85 88 88 81 86 94 96 95 91 91 88 80 78 92 96 97 99 83 90 75 68 70 66 68 50 48 46 36 56 58 46 67 73 72 62 50 43 60 65 66 60 67 73 86
96 90 94 89 85 92 95 90 92 74 66 77 97 84 96 95 92 98 97 68 71 54 51 54 66 56 51 45 49 39 38 57 72 76 74 72 62 47 57 54 77 83 73 78 88
95 87 85 87 87 95 98 99 83 60 63 80 92 92 86 97 97 97 99 78 52 51 47 48 57 67 55 54 47 56 47 58 54 72 59 70 62 43 43 46 66 68 71 88 94
96 94 78 78 93 99 98 83 64 68 66 86 98 95 96 95 94 98 98 96 62 46 55 43 52 68 60 56 50 49 42 51 54 63 75 73 53 61 56 47 54 62 77 92 93
95 98 81 82 96 94 84 81 73 69 82 82 81 81 77 92 94 96 94 72 78 77 55 44 59 79 70 56 54 46 46 39 40 54 57 66 51 59 67 57 65 83 94 96 96
98 98 93 94 95 95 90 79 82 70 76 69 70 79 74 78 89 88 74 75 70 74 80 79 66 58 64 56 56 67 50 51 47 66 52 44 45 41 59 64 77 79 85 92 91
98 94 96 98 95 99 88 89 93 94 81 76 78 76 86 98 79 76 82 73 61 77 75 80 98 81 57 48 45 55 49 50 49 43 50 43 42 33 36 60 70 77 84 87 88
99 99 98 97 100 95 96 96 100 93 92 90 96 88 95 96 86 93 80 80 84 96 90 76 99 94 94 57 47 53 47 46 44 42 41 43 42 42 60 68 77 80 82 82 82
96 92 98 89 98 95 95 94 92 87 80 79 84 97 95 85 80 82 74 68 73 93 100 100 97 98 96 70 68 77 53 48 47 47 42 54 45 60 71 66 71 77 74 74 74
Wind_Speed
11 10 10 8 10 10 11 12 10 8 11 13 17 13 7 5 5 4 12 10 9 6 10 6 3 4 4 2 3 4 3 4 7 7 5 6 6 3 3 8 2 3 7 13 13
11 10 8 6 7 9 10 10 11 11 9 9 14 16 8 3 3 10 11 15 17 12 6 10 8 7 3 5 2 4 3 8 7 6 7 5 8 10 7 5 5 5 8 18 16
12 8 7 7 8 9 9 10 11 11 9 9 11 16 13 2 4 9 19 26 17 11 7 5 6 6 4 4 4 6 6 5 3 2 8 9 6 2 13 1 7 14 23 17 16
13 10 6 6 6 7 8 10 11 13 10 6 8 13 21 4 7 3 1 21 22 9 8 8 6 7 6 7 6 4 7 3 5 5 7 7 8 5 2 8 11 21 25 17 16
12 9 9 8 8 10 11 11 13 13 13 11 8 8 11 5 9 5 8 6 16 9 11 10 8 7 7 6 6 7 3 3 4 3 3 8 4 7 3 5 14 17 19 18 15
14 12 11 11 11 11 13 13 12 13 13 11 10 4 2 15 8 8 7 4 14 14 9 7 9 7 7 5 6 9 7 1 1 3 2 6 5 7 2 10 14 20 16 16 15
16 14 12 12 11 12 14 15 15 14 14 13 10 2 9 17 14 5 4 6 11 15 11 8 3 7 7 4 6 5 4 2 3 3 3 7 2 6 7 17 17 16 13 13 13
17 15 14 14 14 15 16 18 17 17 15 14 13 4 8 10 13 16 12 1 6 4 2 3 7 4 3 2 4 9 6 5 4 7 1 4 8 2 7 19 16 12 11 12 12
18 18 16 15 16 16 18 21 21 19 15 11 6 3 6 12 8 13 9 4 6 4 4 4 5 4 2 5 4 3 6 5 2 6 5 5 5 6 8 13 14 14 13 13 11
20 19 18 17 17 19 20 23 12 5 3 3 0 3 6 5 6 4 7 6 5 10 4 5 4 5 2 6 15 8 7 3 8 6 2 5 4 2 8 11 16 13 12 13 14
21 20 20 19 19 21 13 6 7 5 4 6 3 6 3 2 12 10 8 8 5 8 8 5 7 17 15 7 5 7 9 6 3 6 6 9 7 6 7 5 8 9 11 12 14
23 22 22 23 23 17 3 4 3 2 11 6 9 16 6 4 7 15 14 10 9 15 7 5 20 11 9 10 6 6 9 5 2 4 6 4 8 2 5 5 7 11 9 12 7
23 23 22 23 23 4 2 2 5 2 4 7 5 6 7 10 9 15 20 8 15 9 16 11 3 9 8 8 11 3 9 6 6 5 3 6 6 6 5 3 6 7 8 8 16
24 23 21 21 6 5 2 5 5 2 3 6 7 3 7 3 8 12 15 14 6 17 13 3 6 17 10 14 13 9 6 7 8 7 6 6 6 6 7 9 7 9 9 10 10
28 24 20 12 3 3 2 5 4 2 4 8 7 10 14 11 12 11 17 4 14 11 9 10 14 18 19 16 10 7 7 8 7 6 5 3 4 7 10 11 9 9 11 10 11
28 24 17 3 1 4 3 3 0 7 3 4 3 6 9 5 7 5 19 2 5 7 4 7 7 11 11 6 12 6 8 7 5 4 3 8 9 6 8 15 10 10 8 12 12
30 23 7 0 4 5 2 1 6 5 2 5 4 7 7 3 3 7 24 19 10 14 13 5 5 3 10 9 6 6 12 1 2 1 6 5 5 10 7 12 17 22 18 14 9
27 13 5 3 6 4 3 7 8 5 3 4 7 5 4 3 4 6 21 20 15 3 7 13 7 12 10 12 13 14 13 8 10 6 3 5 8 8 4 2 4 9 10 8 7
16 5 3 5 6 3 6 6 4 5 5 10 10 4 6 6 4 6 12 22 11 11 9 13 7 4 5 4 14 8 12 7 9 3 5 6 6 4 1 3 1 8 14 17 14
2 3 3 7 5 5 6 3 3 4 9 4 3 4 4 7 6 9 8 14 11 10 3 6 5 1 3 4 2 19 10 5 1 9 5 3 5 9 5 8 5 8 14 15 13
4 4 4 8 4 6 4 3 5 8 11 3 4 5 1 3 1 3 4 4 20 11 3 4 6 3 5 10 17 4 12 3 6 6 11 3 8 8 13 13 16 17 15 14 13
2 4 5 5 6 3 2 7 8 7 10 4 3 4 3 4 5 2 5 6 12 15 6 4 5 8 10 1 3 4 13 6 9 12 1 5 8 1 2 6 7 9 11 10 13
3 2 5 6 6 7 7 5 2 9 8 9 6 6 2 4 5 5 4 8 15 10 5 6 2 6 3 3 2 13 9 19 12 4 9 6 6 1 3 5 7 11 8 9 12
3 5 5 5 2 3 8 5 9 11 5 8 9 4 8 4 2 7 9 4 15 10 13 13 3 9 15 23 6 3 12 5 9 5 9 13 8 5 6 7 8 11 14 15 14
4 2 2 4 5 4 5 4 8 8 4 5 4 3 6 5 8 5 2 9 7 10 4 7 4 4 5 8 14 8 14 10 15 18 14 12 11 8 10 15 15 10 13 15 16
3 4 4 2 2 6 4 3 2 5 5 6 4 6 5 9 11 12 7 5 4 8 8 5 2 3 5 8 11 8 15 16 16 19 17 6 7 2 4 9 9 14 16 17 18
2 4 3 4 3 4 3 6 8 13 6 10 13 14 13 15 6 12 12 12 12 8 5 5 5 5 5 3 4 4 17 21 16 7 18 13 12 6 4 10 17 18 21 24 22
Wind_Direction
308 297 297 320 325 331 334 319 342 348 339 332 335 325 289 300 289 225 230 225 203 240 130 133 148 155 106 153 202 119 65 167 194 150 234 154 126 185 72 116 69 137 144 154 137
315 300 306 308 324 334 334 335 340 334 326 328 318 331 292 313 240 242 226 239 235 195 147 158 167 147 143 176 193 120 149 206 201 189 196 165 141 156 107 125 40 55 101 132 136
325 312 318 327 329 326 333 330 325 325 322 328 326 331 324 289 268 237 213 221 225 210 166 152 120 132 164 148 176 170 203 196 265 233 156 159 123 101 122 151 182 149 144 145 142
332 326 316 291 307 319 324 329 332 329 332 320 350 334 327 218 216 181 171 211 211 187 151 156 142 152 158 177 184 165 238 196 292 334 122 171 129 89 101 198 150 155 153 150 151
338 335 330 326 320 315 314 315 317 321 327 320 339 0 329 210 246 269 331 193 193 168 181 173 157 139 174 183 139 186 253 177 224 331 132 132 133 148 114 97 135 144 151 157 158
2 355 347 334 327 317 313 311 301 310 318 310 311 42 325 244 246 278 269 196 186 177 191 155 183 184 153 187 171 191 211 71 180 211 59 130 163 115 213 135 140 153 162 165 162
1 0 346 331 325 321 318 313 304 298 295 303 300 261 267 260 299 344 261 188 179 179 172 186 170 162 141 155 201 120 166 145 220 217 141 129 66 183 151 150 153 164 165 167 168
354 351 344 336 329 328 321 310 301 293 287 279 275 235 259 276 276 272 292 211 128 165 121 137 143 179 184 203 74 130 92 148 241 157 124 118 222 207 169 149 163 165 167 172 178
356 350 346 336 328 326 318 309 298 294 274 248 226 211 258 313 237 247 223 264 152 167 241 132 142 184 119 123 89 172 176 166 179 219 133 140 210 211 172 166 169 172 172 177 177
357 353 349 343 336 326 320 306 301 343 24 143 359 180 212 247 220 239 190 200 154 144 155 170 145 154 120 143 188 164 151 169 169 204 161 154 231 204 191 168 182 179 181 180 186
356 350 344 341 333 327 333 350 14 349 29 222 210 235 193 320 274 228 166 156 121 156 168 187 158 198 190 148 149 131 128 154 213 183 131 204 202 208 178 158 177 191 184 188 194
351 347 343 339 332 321 9 50 91 212 305 270 245 261 286 83 305 212 159 172 154 179 129 123 215 198 143 166 164 158 154 185 104 167 148 162 231 216 194 213 187 183 192 190 155
342 341 339 336 330 38 348 86 150 52 299 307 258 240 232 159 246 220 178 155 170 166 186 184 197 154 166 163 185 187 162 176 156 122 61 104 323 216 232 252 183 204 194 180 172
343 338 336 336 2 329 54 160 160 153 290 319 294 271 168 120 272 227 185 151 166 191 180 204 185 166 184 195 173 192 192 156 135 109 186 158 249 231 201 210 209 208 191 183 174
341 334 334 339 292 328 310 179 181 244 3 352 325 305 305 167 316 179 187 212 177 158 150 197 172 180 186 196 163 204 154 158 161 150 119 169 97 259 169 208 218 216 209 195 189
344 337 341 5 360 251 184 198 68 43 338 317 232 323 4 321 263 190 182 188 137 145 85 195 179 174 179 155 171 140 99 58 59 85 251 193 164 250 186 202 202 203 199 191 185
344 338 355 255 332 291 253 288 40 84 238 291 317 322 339 279 272 268 184 189 168 160 166 187 191 142 142 137 170 160 147 101 359 239 219 182 187 220 209 208 197 194 195 189 173
343 347 355 33 320 323 19 48 57 250 340 329 312 317 355 319 214 255 186 189 232 175 132 162 190 175 179 185 181 191 173 157 175 165 193 110 228 239 216 313 271 218 172 131 159
347 348 21 328 339 25 62 47 221 358 330 312 318 350 16 341 348 269 201 194 211 204 152 171 201 154 175 153 155 189 207 165 97 357 119 198 275 293 340 332 83 168 158 180 180
347 355 332 322 360 44 71 337 315 332 324 302 314 32 315 339 5 351 173 202 212 184 239 176 119 201 153 112 336 185 152 153 36 157 206 260 245 221 197 223 180 176 195 185 167
36 41 280 332 54 45 94 265 307 308 335 310 322 309 301 298 267 288 307 292 203 208 167 163 119 206 132 207 185 140 194 179 127 150 200 166 251 205 199 200 194 202 194 175 164
11 46 309 9 44 16 7 313 308 314 337 353 307 249 290 321 313 301 321 298 335 220 176 221 135 163 192 277 262 147 198 151 191 210 203 158 251 186 292 223 217 194 174 164 155
28 295 331 55 49 3 326 303 281 341 354 349 312 21 324 313 325 279 303 330 10 320 208 190 227 123 133 328 342 191 199 204 212 93 194 180 255 61 271 184 168 145 143 151 144
57 22 338 32 20 65 348 336 349 337 309 351 293 342 348 352 10 312 301 332 340 299 284 337 276 192 198 205 109 133 191 181 194 175 203 219 215 199 213 217 175 177 167 159 163
31 36 128 303 334 5 332 309 343 343 307 297 321 63 30 314 309 259 24 341 328 332 247 177 189 4 340 165 191 168 192 176 202 216 205 216 215 218 207 203 196 164 155 163 169
64 344 335 283 332 340 337 331 279 291 258 300 225 280 320 263 262 293 332 28 294 339 330 156 199 100 315 316 209 204 207 199 214 211 225 188 219 231 77 95 138 169 169 177 182
338 313 281 308 2 47 249 325 307 314 263 236 302 301 280 277 276 269 262 257 267 294 317 310 150 138 229 307 80 308 205 205 216 199 210 204 207 161 183 179 178 181 186 191 189